Location: Milano
(45.4670°N, 9.2000°E)
Time: 05:40:24
(UTC+02:00)

X-37B - Pass Details

Date: 01 August 2021
Orbit: 381 x 393 km, 45.0° (Epoch: 29 August)

Event Time Altitude Azimuth Distance (km) Brightness Sun altitude
Exits shadow 05:31:42 - 222° (SW) 1,572 3.0 -6.2°
Reaches altitude 10° 05:32:11 10° 218° (SW) 1,391 2.8 -6.1°
Maximum altitude 05:34:59 30° 155° (SSE) 717 1.9 -5.7°
Drops below altitude 10° 05:37:47 10° 92° (E) 1,399 4.4 -5.3°
Sets 05:39:59 0° 81° (E) 2,255 5.9 -5.0°
